Weather reports worldwide

Advertisment
Llanes, Spain (8016): temperature & dewpoint: 13.03.2019 09:00:00 - 19.03.2019 09:00:00 (CET)Llanes, Spain (8016): wind speed & gusts: 13.03.2019 09:00:00 - 19.03.2019 09:00:00 (CET)Llanes, Spain (8016): wind direction: 13.03.2019 09:00:00 - 19.03.2019 09:00:00 (CET)Llanes, Spain (8016): reduced air pressure: 13.03.2019 09:00:00 - 19.03.2019 09:00:00 (CET)Llanes, Spain (8016): visibility: 13.03.2019 09:00:00 - 19.03.2019 09:00:00 (CET)Llanes, Spain (8016): sunshine duration: 13.03.2019 09:00:00 - 19.03.2019 09:00:00 (CET)Llanes, Spain (8016): precipitation: 13.03.2019 09:00:00 - 19.03.2019 09:00:00 (CET)
Date & Time tt [°C] td [°C] ff [km/h] ff [kn] fx [km/h] fx [kn] dd ppp [hPa] vv [km] sd [min] rr [mm]
19.03.2019 09:00:00 10,2 6,8 9 5 28 15 W 1030,3 20 0 0,2
19.03.2019 08:00:00 9,8 6,1 6 4 27 15 W 1029,9 20 0 0,0
19.03.2019 07:00:00 9,4 5,8 6 3 27 15 W 1029,2 20 0 -
19.03.2019 06:00:00 9,1 5,8 8 5 28 15 W 1029,3 20 0 0,0
19.03.2019 05:00:00 9,1 5,8 11 6 26 14 W 1029,4 7 0 0,2
19.03.2019 04:00:00 9,4 5,8 11 6 29 16 W 1029,4 14 0 0,6
19.03.2019 03:00:00 9,3 5,5 9 5 28 15 W 1029,9 19 0 0,0
19.03.2019 02:00:00 9,3 5,6 9 5 28 15 W 1029,9 20 0 0,2
19.03.2019 01:00:00 9,6 5,6 11 6 34 18 WNW 1030,4 20 0 -
19.03.2019 00:00:00 10,3 5,1 6 4 23 12 W 1030,2 20 0 0,0
18.03.2019 23:00:00 10,4 5,1 6 3 34 18 W 1030,8 20 0 0,0
18.03.2019 22:00:00 10,5 5,0 8 5 22 12 W 1030,7 20 0 0,0
18.03.2019 21:00:00 10,6 5,1 6 4 21 12 W 1030,4 20 0 0,0
18.03.2019 20:00:00 10,9 5,6 4 2 22 12 W 1030,4 8 0 0,0
18.03.2019 19:00:00 11,3 5,8 6 4 29 15 W 1030,2 20 0 -
18.03.2019 18:00:00 11,6 5,6 10 5 32 18 WNW 1030,0 20 1 0,0
18.03.2019 17:00:00 12,0 5,5 15 8 34 19 NW 1029,8 20 46 0,0
18.03.2019 16:00:00 11,6 5,0 16 9 34 19 NW 1029,7 20 34 0,0
18.03.2019 15:00:00 12,5 5,1 19 10 35 19 NW 1029,9 20 60 0,0
18.03.2019 14:00:00 12,5 5,6 19 10 33 18 NW 1030,2 20 58 0,0
18.03.2019 13:00:00 11,7 4,8 18 10 34 18 NW 1030,6 20 34 -
18.03.2019 12:00:00 11,7 4,8 14 8 20 11 NW 1030,8 20 6 0,0
18.03.2019 11:00:00 11,2 5,1 9 5 20 11 WNW 1030,8 20 3 0,0
18.03.2019 10:00:00 9,8 5,0 5 3 28 15 W 1030,6 20 2 0,0
18.03.2019 09:00:00 9,1 5,1 6 4 26 14 WNW 1029,9 20 1 0,0
18.03.2019 08:00:00 8,5 4,5 9 5 26 14 W 1029,1 20 0 0,2
18.03.2019 07:00:00 8,0 3,9 11 6 26 14 WSW 1028,7 20 0 -
18.03.2019 06:00:00 7,9 3,9 11 6 27 15 W 1028,6 20 0 0,2
18.03.2019 05:00:00 8,0 3,2 10 5 26 14 W 1028,0 20 0 0,0
18.03.2019 04:00:00 8,2 3,6 11 6 27 15 W 1028,0 20 0 0,2
18.03.2019 03:00:00 7,9 3,2 9 5 29 16 W 1028,0 20 0 0,0
18.03.2019 02:00:00 7,8 3,2 11 6 29 16 WSW 1028,2 20 0 0,0
18.03.2019 01:00:00 8,3 2,9 10 5 28 15 W 1028,1 20 0 -
18.03.2019 00:00:00 8,4 3,2 10 5 27 15 W 1028,4 20 0 0,0
17.03.2019 23:00:00 8,2 3,4 10 5 27 15 W 1028,4 20 0 0,0
17.03.2019 22:00:00 8,8 3,8 11 6 30 16 WSW 1028,3 20 0 0,0
17.03.2019 21:00:00 8,8 3,6 10 5 30 16 WSW 1028,0 20 0 0,0
17.03.2019 20:00:00 9,5 3,6 8 4 28 15 W 1027,3 20 0 0,0
17.03.2019 19:00:00 10,3 4,6 10 5 27 15 W 1026,8 20 0 -
17.03.2019 18:00:00 10,7 5,5 9 5 33 18 W 1026,1 20 0 0,2
17.03.2019 17:00:00 10,6 6,7 6 3 25 13 W 1025,6 20 0 0,0
17.03.2019 16:00:00 10,2 5,8 13 7 32 18 W 1025,7 15 0 0,4
17.03.2019 15:00:00 11,2 6,4 10 6 29 16 W 1025,4 20 2 0,0
17.03.2019 14:00:00 10,4 6,7 11 6 34 18 W 1025,3 16 0 0,4
17.03.2019 13:00:00 10,4 6,7 10 5 32 18 W 1025,2 9 0 -
17.03.2019 12:00:00 9,6 6,1 20 11 39 21 W 1024,8 12 0 0,6
17.03.2019 11:00:00 10,1 6,4 11 6 41 22 WSW 1023,6 20 0 0,4
17.03.2019 10:00:00 9,7 7,1 8 4 35 19 W 1023,1 14 0 0,2
17.03.2019 09:00:00 9,2 7,0 12 7 54 29 W 1022,4 10 0 0,6
17.03.2019 08:00:00 10,0 7,6 26 14 67 36 NW 1020,9 3,0 0 0,6
17.03.2019 07:00:00 12,2 7,8 22 12 45 25 WNW 1018,6 9 0 -
17.03.2019 06:00:00 13,8 6,1 21 11 42 23 WNW 1017,5 20 0 0,0
17.03.2019 05:00:00 11,1 7,3 1 1 13 7 NE 1016,6 5 0 0,0
17.03.2019 04:00:00 10,9 7,3 5 3 13 7 SW 1016,2 12 0 0,0
17.03.2019 03:00:00 11,7 7,8 5 3 10 6 W 1017,0 18 0 0,0
17.03.2019 02:00:00 11,7 7,8 6 4 20 11 WNW 1017,3 14 0 0,0
17.03.2019 01:00:00 - - - - - - - - - - -
17.03.2019 00:00:00 11,8 7,8 1 1 16 9 WSW 1016,6 11 0 0,0
16.03.2019 23:00:00 11,9 8,0 4 2 17 9 SSW 1017,0 13 0 0,0
16.03.2019 22:00:00 11,8 7,8 4 2 23 12 W 1017,7 16 0 0,0
16.03.2019 21:00:00 11,8 7,8 9 5 33 18 W 1017,9 15 0 0,0
16.03.2019 20:00:00 11,8 7,8 14 8 35 19 W 1017,6 15 0 0,0
16.03.2019 19:00:00 12,0 8,1 13 7 36 19 WNW 1017,0 15 5 -
16.03.2019 18:00:00 12,6 8,5 16 9 33 18 W 1016,4 15 35 0,0
16.03.2019 17:00:00 13,4 9,0 19 11 30 16 NW 1016,0 14 60 0,0
16.03.2019 16:00:00 13,8 8,7 20 11 32 17 NW 1016,3 16 60 0,0
16.03.2019 15:00:00 13,9 8,8 16 9 23 13 NW 1016,5 18 60 0,0
16.03.2019 14:00:00 14,1 9,2 8 4 18 10 NNW 1017,1 15 60 0,0
16.03.2019 13:00:00 12,9 8,4 14 7 24 13 NW 1018,3 17 60 -
16.03.2019 12:00:00 12,9 8,1 13 7 19 10 NW 1019,1 15 60 0,0
16.03.2019 11:00:00 14,0 8,7 5 3 16 9 NNW 1019,2 11 60 0,0
16.03.2019 10:00:00 12,9 8,8 3 2 18 10 N 1019,5 12 60 0,0
16.03.2019 09:00:00 9,5 6,7 5 3 25 13 W 1020,0 17 60 0,0
16.03.2019 08:00:00 6,6 4,1 14 8 25 14 WSW 1020,1 18 16 0,0
16.03.2019 07:00:00 6,1 3,6 9 5 23 13 WSW 1020,5 19 0 -
16.03.2019 06:00:00 6,8 3,9 8 4 22 12 WSW 1021,5 18 0 0,0
16.03.2019 05:00:00 7,5 4,6 4 2 24 13 S 1022,5 18 0 0,0
16.03.2019 04:00:00 7,3 4,5 12 6 23 13 WSW 1023,2 20 0 0,0
16.03.2019 03:00:00 7,7 4,5 2 1 18 10 W 1024,2 20 0 0,0
16.03.2019 02:00:00 9,1 5,5 4 2 13 7 S 1024,9 12 0 0,0
16.03.2019 01:00:00 9,8 5,6 1 1 17 9 W 1025,9 18 0 -
16.03.2019 00:00:00 10,8 6,1 3 2 16 9 SSW 1026,4 19 0 0,0
15.03.2019 23:00:00 11,6 6,5 7 4 13 7 SE 1026,7 10 0 0,0
15.03.2019 22:00:00 11,8 6,5 3 2 14 8 S 1027,2 15 0 0,0
15.03.2019 21:00:00 12,0 6,7 3 2 6 3 SSW 1027,7 11 0 0,0
15.03.2019 20:00:00 12,1 6,8 2 1 8 4 WSW 1028,0 18 0 0,0
15.03.2019 19:00:00 12,3 6,8 5 3 10 5 NW 1028,2 17 0 -
15.03.2019 18:00:00 12,7 7,0 7 4 14 8 NW 1028,2 20 0 0,0
15.03.2019 17:00:00 13,5 7,3 6 3 13 7 NNW 1028,3 11 0 0,0
15.03.2019 16:00:00 13,5 6,8 8 4 17 9 NNW 1028,6 11 10 0,0
15.03.2019 15:00:00 14,3 6,7 10 5 19 10 NW 1028,8 16 55 0,0
15.03.2019 14:00:00 14,0 6,4 9 5 21 11 NW 1029,3 15 23 0,0
15.03.2019 13:00:00 13,8 6,1 14 8 32 18 NW 1029,7 20 56 -
15.03.2019 12:00:00 13,5 5,6 12 7 23 12 NW 1030,1 20 49 0,0
15.03.2019 11:00:00 13,4 5,0 11 6 16 9 NW 1030,3 20 29 0,0
15.03.2019 10:00:00 12,6 4,8 9 5 19 10 W 1030,5 20 25 0,0
15.03.2019 09:00:00 11,7 4,6 7 4 21 11 WSW 1030,5 20 54 0,0
15.03.2019 08:00:00 8,9 3,2 8 4 24 13 WSW 1030,4 20 3 0,0
15.03.2019 07:00:00 8,9 3,0 8 4 24 13 WSW 1030,1 20 0 -
15.03.2019 06:00:00 8,9 3,0 8 4 22 12 WSW 1030,1 20 0 0,0
15.03.2019 05:00:00 9,3 3,2 6 4 21 12 WSW 1030,3 20 0 0,0
15.03.2019 04:00:00 9,4 3,4 7 4 23 12 WSW 1030,2 20 0 0,0
15.03.2019 03:00:00 9,6 3,8 8 4 20 11 WSW 1030,7 20 0 0,0
15.03.2019 02:00:00 10,2 3,9 6 4 10 5 SW 1031,3 20 0 0,0
15.03.2019 01:00:00 10,9 4,3 3 2 14 8 W 1031,5 20 0 -
15.03.2019 00:00:00 11,4 4,6 3 2 19 10 WSW 1031,7 20 0 0,0
14.03.2019 23:00:00 11,8 5,0 6 3 19 10 W 1032,0 20 0 0,0
14.03.2019 22:00:00 12,2 5,3 12 7 23 12 W 1031,9 18 0 0,0
14.03.2019 21:00:00 12,1 4,8 10 5 26 14 W 1031,8 20 0 0,0
14.03.2019 20:00:00 12,1 5,9 10 5 32 17 W 1031,7 16 0 0,0
14.03.2019 19:00:00 12,2 5,8 18 10 32 17 WNW 1031,4 20 0 -
14.03.2019 18:00:00 12,3 5,9 12 7 31 17 W 1031,0 20 0 0,0
14.03.2019 17:00:00 12,2 5,6 19 10 42 23 WNW 1031,4 20 0 0,0
14.03.2019 16:00:00 12,2 5,6 21 11 47 25 WNW 1031,6 15 0 0,0
14.03.2019 15:00:00 13,0 5,1 18 10 46 25 WNW 1031,6 20 28 0,0
14.03.2019 14:00:00 13,8 5,0 25 14 49 26 WNW 1031,8 20 60 0,0
14.03.2019 13:00:00 13,8 4,3 23 12 44 24 NW 1032,3 18 60 -
14.03.2019 12:00:00 12,9 4,1 25 13 42 23 NW 1032,6 13 60 0,0
14.03.2019 11:00:00 13,1 2,7 22 12 41 22 WNW 1032,8 20 60 0,0
14.03.2019 10:00:00 12,3 2,1 19 10 36 19 WNW 1033,3 20 60 0,0
14.03.2019 09:00:00 11,2 2,7 12 7 24 13 WNW 1032,8 20 51 0,0
14.03.2019 08:00:00 10,0 2,3 10 5 26 14 W 1032,5 19 0 0,0
14.03.2019 07:00:00 10,3 2,1 14 7 26 14 WNW 1032,0 20 0 -
14.03.2019 06:00:00 9,8 1,9 9 5 32 17 WNW 1032,2 20 0 0,0
14.03.2019 05:00:00 10,3 3,0 12 6 29 16 WNW 1032,7 14 0 0,0
14.03.2019 04:00:00 10,1 3,4 8 4 30 16 W 1033,1 20 0 0,0
14.03.2019 03:00:00 10,2 3,8 12 6 32 18 W 1034,0 20 0 0,0
14.03.2019 02:00:00 9,8 3,9 9 5 36 19 W 1034,2 20 0 0,0
14.03.2019 01:00:00 10,3 3,9 12 7 34 18 W 1034,2 17 0 -
14.03.2019 00:00:00 10,2 3,9 13 7 31 17 W 1034,0 18 0 0,0
13.03.2019 23:00:00 10,1 4,3 11 6 34 18 W 1034,2 20 0 0,0
13.03.2019 22:00:00 10,3 3,9 12 6 34 18 W 1034,1 20 0 0,0
13.03.2019 21:00:00 9,9 3,6 13 7 31 17 W 1033,9 17 0 0,0
13.03.2019 20:00:00 10,1 3,6 10 6 34 18 W 1033,7 18 0 0,0
13.03.2019 19:00:00 10,5 4,1 16 8 45 24 W 1033,2 20 0 -
13.03.2019 18:00:00 11,7 5,9 16 9 43 23 WNW 1032,8 10 39 0,0
13.03.2019 17:00:00 11,5 5,0 22 12 56 30 WNW 1032,8 19 22 0,0
13.03.2019 16:00:00 12,5 5,0 24 13 48 26 WNW 1032,4 20 43 0,0
13.03.2019 15:00:00 - - - - - - - - - - -
13.03.2019 14:00:00 12,0 5,5 21 11 45 24 WNW 1032,2 20 21 0,0
13.03.2019 13:00:00 10,8 5,3 20 11 37 20 WNW 1032,4 20 25 -
13.03.2019 12:00:00 10,6 6,1 11 6 41 22 W 1032,1 20 0 0,4
13.03.2019 11:00:00 10,9 4,6 19 10 44 24 W 1031,4 20 39 0,0
13.03.2019 10:00:00 9,3 5,1 12 6 35 19 W 1031,0 20 0 0,6
13.03.2019 09:00:00 9,5 4,1 20 11 48 26 W 1030,6 16 31 0,2

tt = temperature
td = dewpoint
ff = wind speed
fx = gusts
dd = wind direction
ppp = reduced air pressure
vv = visibility
sd = sunshine duration
rr = precipitation

Next stations